Location: GMARS
(34.2910°N, 116.3838°W)
Time: 22:22:56
(UTC-07:00)

Daily predictions for brighter satellites

Satellite Brightness Start Highest point End
(mag) Time Altitude Azimuth Time Altitude Azimuth Time Altitude Azimuth
Milstar 3 4.4 18:34:20 10° WSW 18:43:18 63° SSE 19:00:50 10° E
CZ-4C R/B 2.4 18:52:55 10° SW 18:58:06 73° WNW 19:03:52 10° NNE
COSMOS 2441 4.4 18:54:32 10° SSE 18:59:24 82° ENE 19:04:16 10° N
Cosmos 1484 Rocket 2.7 18:57:24 10° SSE 19:01:09 77° ENE 19:05:00 10° N
Cosmos 2333 Rocket 2.8 18:57:37 10° SSW 19:03:18 64° WNW 19:09:03 10° NNE
COSMO-SKYMED 1 3.2 19:01:47 10° N 19:06:05 63° WNW 19:10:21 10° SSW
Atlas Centaur 2 3.3 18:57:59 10° W 19:06:30 67° S 19:14:16 10° ESE
SAR-Lupe-4 3.6 19:05:54 10° SSE 19:09:24 60° ENE 19:12:56 10° N
Yuri Rocket 4.5 19:07:30 10° WSW 19:11:10 27° SSW 19:14:41 10° SE
USA 215 3.4 19:05:36 10° NE 19:12:09 81° NW 19:18:40 10° SW
Helios 1A 4.1 19:09:15 10° SE 19:12:40 25° ENE 19:16:05 10° NNE
Cosmos 1844 4.2 19:14:21 10° NNW 19:19:51 63° WSW 19:25:18 10° S
Cosmos 1766 3.5 19:16:17 10° SSE 19:20:03 46° E 19:23:51 10° NNE
SEDSat Delta rocket 4.4 19:16:16 10° WSW 19:22:47 54° SSE 19:28:30 14° E
Cosmos 1464 Rocket 4.2 19:16:59 10° SSE 19:22:58 49° E 19:28:55 10° NNE
ASTRO E2 3.3 19:22:33 10° WSW 19:26:24 44° S 19:29:15 17° ESE
SeaSat 1 3.4 19:24:05 10° NE 19:28:12 26° ESE 19:32:17 10° SSE
ATLAS CENTAUR R/B 3.1 19:26:14 10° SW 19:30:21 84° SE 19:43:01 10° NE
CZ-4B DEB 4.3 19:31:07 18° E 19:31:26 18° ENE 19:33:44 10° NNE
Cosmos 1844 Rocket 4.4 19:26:32 10° NW 19:31:33 35° WSW 19:36:34 10° SSW
Cosmos 192 4.5 19:27:16 10° S 19:32:03 51° ESE 19:36:51 10° NNE
Cosmos 1953 3.2 19:28:52 10° SSE 19:32:17 28° E 19:35:42 10° NNE
Cosmos 2237 Rocket 3.6 19:28:51 10° SW 19:34:11 41° WNW 19:39:33 10° N
BREEZE-M DEB (TANK) 4.1 19:32:42 10° NW 19:36:34 90° SW 19:50:42 10° SE
NOSS 3-2 (A) 3.4 19:34:56 10° SSW 19:40:54 87° ESE 19:47:23 10° NNE
NOAA 12 4.4 19:40:59 10° S 19:46:12 72° WSW 19:51:28 10° NNW
TIMED 4.4 19:43:00 10° NNW 19:47:22 76° ENE 19:51:43 10° SSE
Abrixas rocket 3.9 19:46:27 10° WNW 19:49:25 30° SW 19:51:52 13° SSE
ATLAS 5 CENTAUR R/B 1.7 19:45:12 10° SSW 19:49:47 60° ESE 19:54:43 10° NE
SL-16 R/B 2.5 19:46:19 10° SSW 19:51:58 71° WNW 19:57:39 10° NNE
Cosmos 724 4.5 19:47:32 10° S 19:53:07 47° ESE 19:58:51 10° NE
Cosmos 1437 3.9 19:50:14 10° NNW 19:53:21 46° W 19:56:29 10° S
Spot 2 Rocket 3.4 19:49:21 10° SSE 19:54:24 90° NW 19:59:27 10° NNW
Cosmos-2242 3.2 19:50:19 10° SSE 19:54:28 49° E 19:58:42 10° NNE
Cosmos 1805 3.3 19:51:10 10° S 19:54:58 54° E 19:58:50 10° NNE
Cosmos 1076 Rocket 3.4 19:51:23 10° N 19:55:41 66° E 19:59:58 10° SSE
Cosmos 1891 Rocket 4.5 19:50:56 10° S 19:57:22 76° E 20:03:48 10° N
Resurs 01 Rocket 1.7 19:54:00 10° S 19:58:26 80° WSW 20:02:54 10° NNW
H-2A R/B 3.3 19:58:28 36° E 19:58:41 36° ENE 20:02:17 10° N
Cosmos 2056 Rocket 3.6 19:53:53 10° NNW 19:59:20 81° WSW 20:04:44 10° SSE
FREGAT/IRIS 4.5 19:57:02 10° SSW 19:59:51 33° W 20:02:42 10° NNW
Aureole 2 Rocket 4.1 19:58:19 10° SW 20:02:32 46° WNW 20:06:44 10° N
Resurs 1-3 3.5 20:00:15 10° SSE 20:04:37 89° WSW 20:09:02 10° NNW
Cosmos 1408 Rocket 3.4 20:00:31 10° N 20:04:53 74° E 20:08:07 17° SSE
ALOS 2.2 20:04:53 22° SSE 20:07:52 66° ENE 20:12:30 10° N
Helios 1B rocket 3.6 20:04:31 10° N 20:08:26 44° WNW 20:12:20 10° SW
Timation 1 Rocket 4.3 20:03:44 10° NNW 20:09:42 68° ENE 20:12:56 28° SE
Cosmos 1758 3.3 20:08:11 10° S 20:12:14 84° W 20:16:20 10° N
NOSS 3-2 (C) 3.8 20:11:22 10° SW 20:17:19 64° WNW 20:23:46 10° NNE
ASTEX 1 3.2 20:15:18 10° N 20:20:13 73° E 20:25:04 10° S
Cosmos 2278 Rocket 4.1 20:16:42 10° NW 20:21:27 29° WSW 20:26:13 10° SSW
Cosmos 1544 4.1 20:23:51 37° N 20:23:51 37° N 20:26:14 10° N
CENTAUR R/B 3.9 20:18:41 10° S 20:20:10 17° SSE 20:20:10 17° SSE
Cosmos 2297 4.1 20:18:44 10° NNW 20:24:18 61° WSW 20:28:51 15° S
FENGYUN 3A 3.7 20:26:06 19° S 20:29:59 78° WSW 20:35:23 10° NNW
Cosmos 1743 Rocket 3.9 20:26:31 10° N 20:30:02 51° NNE 20:30:02 51° NNE
OAO 3 Rocket 3.0 20:29:23 10° W 20:34:12 84° N 20:34:24 81° NE
ATLAS CENTAUR R/B 2.9 20:31:00 10° NW 20:34:35 30° WSW 20:35:50 24° SSW
Cosmos 1603 3.8 20:33:09 10° SSW 20:38:52 78° WNW 20:44:38 10° NNE
Nadezhda 4 Rocket 3.9 20:34:06 10° N 20:40:24 88° E 20:43:08 36° S
Cosmos 2369 Rocket 3.8 20:37:35 10° N 20:40:09 20° NNE 20:40:09 20° NNE
Cosmos 1092 Rocket 3.8 20:38:18 10° N 20:44:30 68° E 20:44:44 67° E
ERS-1 Rocket 4.3 20:54:28 29° N 20:54:28 29° N 20:56:59 10° N
Cosmos 1634 Rocket 3.9 20:54:30 71° NE 20:54:30 71° NE 21:00:12 10° N
Atlas Centaur 2 3.3 20:48:11 10° W 20:56:02 46° SSW 20:57:08 44° S
Cosmos 1452 Rocket 4.0 20:51:02 10° NNW 20:56:10 57° WSW 20:56:48 53° SW
BREEZE-M DEB (TANK) 4.1 20:36:08 10° NW 21:02:10 78° SW 21:03:46 59° SSE
SeaSat 1 4.0 21:01:16 10° N 21:05:41 34° WNW 21:10:05 10° WSW
SEDSat Delta rocket 4.1 21:02:35 10° W 21:08:38 65° SW 21:08:38 65° SW
ATLAS 5 CENTAUR R/B 4.5 21:31:53 10° W 21:34:56 16° NW 21:38:09 10° N
